| time (UTC) | temp F | wind direction | speed knots | gust knots | rain 1hr in | rain 24hr in | rain mn in | humidity % | barometer mb |
| 20260506123953 | 67 | 148 | 0.0 | 1.7 | 0.00 | 0.01 | 0.00 | 57 | 1005.2 |
| 20260506123447 | 68 | 141 | 0.0 | 2.6 | 0.00 | 0.01 | 0.00 | 58 | 1005.2 |
| 20260506122945 | 67 | 18 | 0.9 | 2.6 | 0.00 | 0.01 | 0.00 | 59 | 1005.2 |
| 20260506122446 | 67 | 113 | 0.9 | 2.6 | 0.00 | 0.01 | 0.00 | 58 | 1005.3 |
| 20260506121954 | 67 | 56 | 1.7 | 7.0 | 0.00 | 0.01 | 0.00 | 61 | 1005.3 |
| 20260506121454 | 67 | 113 | 1.7 | 7.0 | 0.00 | 0.01 | 0.00 | 56 | 1005.4 |
| 20260506120952 | 67 | 107 | 0.0 | 6.1 | 0.00 | 0.01 | 0.00 | 57 | 1005.4 |
| 20260506120507 | 67 | 6 | 1.7 | 2.6 | 0.00 | 0.01 | 0.00 | 63 | 1005.5 |
| 20260506120452 | 67 | 86 | 3.5 | 6.1 | 0.00 | 0.01 | 0.00 | 58 | 1005.4 |
| 20260506115446 | 66 | 113 | 0.0 | 7.8 | 0.00 | 0.01 | 0.00 | 59 | 1005.5 |
| 20260506114944 | 66 | 113 | 0.9 | 8.7 | 0.00 | 0.01 | 0.00 | 56 | 1005.3 |
| 20260506114445 | 66 | 80 | 4.3 | 8.7 | 0.00 | 0.01 | 0.00 | 56 | 1005.2 |
| 20260506113944 | 65 | 120 | 2.6 | 8.7 | 0.00 | 0.01 | 0.00 | 56 | 1005.3 |
| 20260506113445 | 65 | 87 | 3.5 | 7.8 | 0.00 | 0.01 | 0.00 | 59 | 1005.4 |
| 20260506113021 | 65 | 254 | 0.0 | 4.3 | 0.00 | 0.01 | 0.00 | 58 | 1006.1 |
| 20260506112952 | 65 | 111 | 2.6 | 5.2 | 0.00 | 0.01 | 0.00 | 57 | 1005.7 |
| 20260506111944 | 66 | 261 | 1.7 | 2.6 | 0.00 | 0.01 | 0.00 | 59 | 1006.3 |
| 20260506111443 | 67 | 32 | 0.9 | 4.3 | 0.00 | 0.01 | 0.00 | 60 | 1006.3 |
| 20260506111424 | 66 | 30 | 1.7 | 5.2 | 0.00 | 0.01 | 0.00 | 63 | 1006.3 |
| 20260506110442 | 66 | 4 | 1.7 | 5.2 | 0.00 | 0.01 | 0.00 | 63 | 1006.4 |
| 20260506105942 | 66 | 96 | 1.7 | 5.2 | 0.00 | 0.01 | 0.00 | 66 | 1006.5 |
| 20260506105440 | 65 | 49 | 1.7 | 5.2 | 0.00 | 0.01 | 0.00 | 64 | 1006.5 |
| 20260506104945 | 65 | 78 | 2.6 | 5.2 | 0.00 | 0.01 | 0.00 | 63 | 1006.4 |
| 20260506104441 | 65 | 183 | 0.0 | 5.2 | 0.00 | 0.01 | 0.00 | 63 | 1006.4 |
| 20260506104431 | 66 | 110 | 0.0 | 5.2 | 0.00 | 0.01 | 0.00 | 59 | 1006.5 |
| 20260506103441 | 66 | 138 | 0.9 | 2.6 | 0.00 | 0.01 | 0.00 | 59 | 1006.6 |
| 20260506102943 | 66 | 237 | 0.9 | 4.3 | 0.00 | 0.01 | 0.00 | 64 | 1006.7 |
| 20260506102446 | 65 | 39 | 0.0 | 5.2 | 0.00 | 0.01 | 0.00 | 65 | 1006.9 |
| 20260506101943 | 65 | 61 | 2.6 | 5.2 | 0.00 | 0.01 | 0.00 | 66 | 1006.9 |
| 20260506101442 | 65 | 66 | 2.6 | 4.3 | 0.00 | 0.01 | 0.00 | 64 | 1006.9 |
| 20260506101026 | 65 | 107 | 1.7 | 5.2 | 0.00 | 0.01 | 0.00 | 63 | 1006.9 |
| 20260506100950 | 65 | 71 | 1.7 | 4.3 | 0.00 | 0.01 | 0.00 | 66 | 1006.9 |
| 20260506095944 | 65 | 23 | 0.9 | 6.1 | 0.00 | 0.01 | 0.00 | 64 | 1006.8 |
| 20260506095648 | 65 | 79 | 2.6 | 6.1 | 0.00 | 0.01 | 0.00 | 65 | 1006.9 |
| 20260506094908 | 65 | 344 | 0.0 | 1.7 | 0.00 | 0.01 | 0.00 | 65 | 1007.0 |
| 20260506093939 | 65 | 340 | 0.9 | 4.3 | 0.00 | 0.01 | 0.00 | 68 | 1006.8 |
| 20260506093442 | 64 | 3 | 1.7 | 6.1 | 0.00 | 0.01 | 0.00 | 65 | 1006.7 |
| 20260506093426 | 64 | 55 | 3.5 | 6.1 | 0.00 | 0.01 | 0.00 | 69 | 1006.7 |
| 20260506092446 | 64 | 73 | 3.5 | 6.1 | 0.00 | 0.01 | 0.00 | 67 | 1006.9 |
| 20260506091936 | 63 | 59 | 2.6 | 6.1 | 0.00 | 0.01 | 0.00 | 68 | 1006.8 |
| 20260506091437 | 63 | 100 | 2.6 | 6.1 | 0.00 | 0.01 | 0.00 | 69 | 1006.8 |
| 20260506090938 | 63 | 120 | 0.0 | 2.6 | 0.00 | 0.01 | 0.00 | 69 | 1006.9 |
| 20260506090444 | 63 | 157 | 0.0 | 2.6 | 0.00 | 0.01 | 0.00 | 70 | 1006.9 |
| 20260506085939 | 63 | 37 | 0.0 | 2.6 | 0.00 | 0.01 | 0.00 | 70 | 1007.0 |
| 20260506085438 | 63 | 37 | 0.9 | 4.3 | 0.00 | 0.01 | 0.00 | 67 | 1007.1 |
| 20260506084936 | 63 | 38 | 1.7 | 4.3 | 0.00 | 0.01 | 0.00 | 67 | 1007.1 |
| 20260506084433 | 63 | 262 | 0.9 | 1.7 | 0.00 | 0.01 | 0.00 | 68 | 1007.0 |
| 20260506083931 | 63 | 283 | 0.0 | 1.7 | 0.00 | 0.01 | 0.00 | 66 | 1007.2 |
| 20260506083433 | 63 | 281 | 0.0 | 1.7 | 0.00 | 0.01 | 0.00 | 69 | 1007.1 |
| 20260506082930 | 62 | 255 | 0.9 | 1.7 | 0.00 | 0.01 | 0.00 | 68 | 1007.1 |
| 20260506082905 | 62 | 255 | 0.0 | 2.6 | 0.00 | 0.01 | 0.00 | 69 | 1007.1 |
| 20260506081935 | 62 | 255 | 0.9 | 2.6 | 0.00 | 0.01 | 0.00 | 69 | 1007.0 |
| 20260506081434 | 63 | 251 | 1.7 | 2.6 | 0.00 | 0.01 | 0.00 | 71 | 1007.1 |
| 20260506080935 | 62 | 345 | 0.0 | 1.7 | 0.00 | 0.01 | 0.00 | 70 | 1007.0 |
| 20260506080432 | 62 | 341 | 0.9 | 2.6 | 0.00 | 0.01 | 0.00 | 71 | 1007.1 |
| 20260506073426 | 59 | 27 | 0.0 | 4.3 | 0.00 | 0.01 | 0.00 | 78 | 1007.4 |
| 20260506072925 | 58 | 221 | 0.0 | 1.7 | 0.00 | 0.01 | 0.00 | 81 | 1007.5 |
| 20260506072426 | 57 | 221 | 0.0 | 1.7 | 0.00 | 0.01 | 0.00 | 81 | 1007.4 |
| 20260506071931 | 57 | 219 | 0.9 | 2.6 | 0.00 | 0.01 | 0.00 | 81 | 1007.6 |
| 20260506071634 | 56 | 219 | 0.9 | 2.6 | 0.00 | 0.01 | 0.00 | 82 | 1007.7 |
| 20260506070423 | 57 | 199 | 0.0 | 0.9 | 0.00 | 0.01 | 0.00 | 81 | 1007.6 |
| 20260506062422 | 53 | 199 | 0.0 | 0.0 | 0.00 | 0.01 | 0.00 | 92 | 1007.6 |
| 20260506061923 | 52 | 199 | 0.0 | 0.0 | 0.00 | 0.01 | 0.00 | 93 | 1007.7 |
| 20260506061443 | 52 | 220 | 0.0 | 0.0 | 0.00 | 0.01 | 0.00 | 93 | 1007.8 |
| 20260506061424 | 52 | 199 | 0.0 | 0.0 | 0.00 | 0.01 | 0.00 | 93 | 1007.8 |
| 20260506060612 | 51 | 220 | 0.0 | 0.0 | 0.00 | 0.01 | 0.00 | 93 | 1007.7 |
| 20260506060508 | 51 | 220 | 0.0 | 0.0 | 0.00 | 0.01 | 0.00 | 94 | 1007.6 |
| 20260506050915 | 47 | 219 | 0.0 | 1.7 | 0.00 | 0.01 | 0.00 | 93 | 1007.8 |
| 20260506050908 | 46 | 219 | 0.0 | 1.7 | 0.00 | 0.01 | 0.00 | 93 | 1007.8 |
| 20260506044915 | 46 | 220 | 0.0 | 1.7 | 0.00 | 0.01 | 0.00 | 93 | 1007.7 |
| 20260506044421 | 46 | 220 | 0.0 | 1.7 | 0.00 | 0.01 | 0.00 | 93 | 1008.1 |
| 20260506043913 | 46 | 220 | 0.9 | 1.7 | 0.00 | 0.01 | 0.00 | 93 | 1007.9 |
| 20260506043413 | 46 | 220 | 0.0 | 1.7 | 0.00 | 0.01 | 0.00 | 93 | 1008.1 |
| 20260506042914 | 45 | 219 | 0.0 | 0.9 | 0.00 | 0.01 | 0.00 | 93 | 1008.1 |
| 20260506042415 | 45 | 219 | 0.0 | 0.0 | 0.00 | 0.01 | 0.00 | 92 | 1008.1 |
| 20260506041916 | 45 | 219 | 0.0 | 0.0 | 0.00 | 0.01 | 0.00 | 92 | 1008.2 |
| 20260506041412 | 45 | 219 | 0.0 | 0.0 | 0.00 | 0.01 | 0.00 | 92 | 1008.1 |
| 20260506040912 | 46 | 219 | 0.0 | 0.0 | 0.00 | 0.01 | 0.00 | 92 | 1007.9 |
| 20260506040412 | 46 | 219 | 0.0 | 0.9 | 0.00 | 0.01 | 0.00 | 93 | 1008.1 |
| 20260506035914 | 46 | 219 | 0.0 | 1.7 | 0.00 | 0.01 | 0.00 | 93 | 1007.9 |
| 20260506035414 | 46 | 219 | 0.0 | 1.7 | 0.00 | 0.01 | 0.00 | 93 | 1007.9 |
| 20260506034913 | 46 | 219 | 0.9 | 1.7 | 0.00 | 0.01 | 0.00 | 93 | 1007.9 |
| 20260506034414 | 46 | 219 | 0.0 | 0.0 | 0.00 | 0.01 | 0.00 | 93 | 1008.3 |
| 20260506034328 | 45 | 219 | 0.0 | 0.0 | 0.00 | 0.01 | 0.00 | 93 | 1008.3 |
| 20260506033409 | 44 | 219 | 0.0 | 0.0 | 0.00 | 0.01 | 0.00 | 93 | 1008.3 |
| 20260506032909 | 44 | 219 | 0.0 | 0.0 | 0.00 | 0.01 | 0.00 | 93 | 1008.3 |
| 20260506032410 | 43 | 219 | 0.0 | 0.0 | 0.00 | 0.01 | 0.00 | 92 | 1008.4 |
| 20260506031912 | 43 | 219 | 0.0 | 0.0 | 0.00 | 0.01 | 0.00 | 92 | 1008.5 |
| 20260506031409 | 43 | 219 | 0.0 | 0.9 | 0.00 | 0.01 | 0.00 | 91 | 1008.5 |
| 20260506030915 | 43 | 219 | 0.0 | 0.9 | 0.00 | 0.01 | 0.00 | 91 | 1008.5 |
| 20260506030411 | 43 | 219 | 0.0 | 0.0 | 0.00 | 0.01 | 0.00 | 91 | 1008.5 |
| 20260506025908 | 43 | 219 | 0.0 | 0.0 | 0.00 | 0.01 | 0.00 | 90 | 1008.4 |
| 20260506025409 | 43 | 219 | 0.0 | 0.0 | 0.00 | 0.01 | 0.00 | 90 | 1008.5 |
| 20260506024908 | 43 | 219 | 0.0 | 0.0 | 0.00 | 0.01 | 0.00 | 90 | 1008.4 |
| 20260506024843 | 43 | 219 | 0.0 | 0.0 | 0.00 | 0.01 | 0.00 | 90 | 1008.4 |
| 20260506023914 | 44 | 219 | 0.0 | 0.0 | 0.00 | 0.01 | 0.00 | 89 | 1008.5 |
| 20260506023901 | 44 | 219 | 0.0 | 0.0 | 0.00 | 0.01 | 0.00 | 89 | 1008.4 |
| 20260506022910 | 45 | 219 | 0.0 | 0.0 | 0.00 | 0.01 | 0.00 | 89 | 1008.4 |
| 20260506022412 | 45 | 219 | 0.0 | 0.9 | 0.00 | 0.01 | 0.00 | 89 | 1008.5 |
| 20260506021908 | 46 | 219 | 0.0 | 0.9 | 0.00 | 0.01 | 0.00 | 90 | 1008.4 |
| 20260506021410 | 46 | 219 | 0.0 | 0.0 | 0.00 | 0.01 | 0.00 | 90 | 1008.4 |
| 20260506021335 | 46 | 219 | 0.0 | 0.0 | 0.00 | 0.01 | 0.00 | 90 | 1008.4 |
| 20260506020857 | 46 | 219 | 0.0 | 0.9 | 0.00 | 0.01 | 0.00 | 90 | 1008.4 |
| 20260506015857 | 47 | 219 | 0.0 | 0.9 | 0.00 | 0.01 | 0.00 | 90 | 1008.5 |
| 20260506015355 | 47 | 219 | 0.0 | 0.0 | 0.00 | 0.01 | 0.00 | 90 | 1008.5 |
| 20260506014853 | 47 | 219 | 0.0 | 0.0 | 0.00 | 0.01 | 0.00 | 89 | 1008.6 |
| 20260506014353 | 47 | 219 | 0.0 | 0.0 | 0.00 | 0.01 | 0.00 | 89 | 1008.7 |
| 20260506013853 | 47 | 219 | 0.0 | 0.0 | 0.00 | 0.01 | 0.00 | 89 | 1008.7 |
| 20260506013353 | 48 | 219 | 0.0 | 0.9 | 0.00 | 0.01 | 0.00 | 89 | 1008.7 |
| 20260506012854 | 48 | 219 | 0.0 | 0.9 | 0.00 | 0.01 | 0.00 | 89 | 1008.7 |
| 20260506012352 | 48 | 219 | 0.0 | 0.0 | 0.00 | 0.01 | 0.00 | 88 | 1008.8 |
| 20260506011853 | 48 | 219 | 0.0 | 0.0 | 0.00 | 0.01 | 0.00 | 87 | 1008.8 |
| 20260506011350 | 49 | 219 | 0.0 | 0.0 | 0.00 | 0.01 | 0.00 | 86 | 1008.7 |
| 20260506010854 | 50 | 0 | 0.0 | 0.0 | 0.00 | 0.01 | 0.00 | 87 | 1008.6 |
| 20260506010351 | 50 | 220 | 0.0 | 0.9 | 0.00 | 0.01 | 0.00 | 87 | 1008.6 |
| 20260506005853 | 51 | 220 | 0.0 | 1.7 | 0.00 | 0.01 | 0.00 | 87 | 1008.7 |
| 20260506005349 | 51 | 220 | 0.0 | 1.7 | 0.00 | 0.01 | 0.00 | 88 | 1008.7 |
| 20260506004852 | 51 | 220 | 0.0 | 0.9 | 0.00 | 0.01 | 0.00 | 88 | 1008.7 |
| 20260506004346 | 51 | 220 | 0.0 | 1.7 | 0.00 | 0.01 | 0.00 | 88 | 1008.7 |
| 20260506003849 | 51 | 220 | 0.0 | 1.7 | 0.00 | 0.01 | 0.00 | 88 | 1008.7 |
| 20260506003347 | 51 | 220 | 0.9 | 1.7 | 0.00 | 0.01 | 0.00 | 88 | 1008.8 |
| 20260506002847 | 52 | 220 | 0.9 | 1.7 | 0.00 | 0.01 | 0.00 | 88 | 1008.9 |
| 20260506002816 | 52 | 220 | 0.9 | 1.7 | 0.00 | 0.01 | 0.00 | 88 | 1008.9 |
| 20260506002344 | 52 | 220 | 0.0 | 1.7 | 0.00 | 0.01 | 0.00 | 88 | 1008.8 |
| 20260506001347 | 52 | 220 | 0.9 | 1.7 | 0.00 | 0.01 | 0.00 | 88 | 1008.9 |
| 20260506000845 | 52 | 220 | 0.9 | 2.6 | 0.00 | 0.01 | 0.00 | 88 | 1008.9 |
| 20260506000411 | 52 | 221 | 1.7 | 2.6 | 0.00 | 0.01 | 0.00 | 88 | 1008.9 |
| 20260506000354 | 52 | 220 | 0.9 | 2.6 | 0.00 | 0.01 | 0.00 | 88 | 1008.9 |
| 20260505235811 | 53 | 237 | 0.0 | 0.9 | 0.00 | 0.01 | 0.00 | 88 | 1009.0 |
| 20260505234840 | 53 | 237 | 0.0 | 0.9 | 0.00 | 0.01 | 0.00 | 88 | 1009.0 |
| 20260505234339 | 53 | 237 | 0.0 | 4.3 | 0.00 | 0.01 | 0.00 | 88 | 1009.0 |
| 20260505233839 | 53 | 237 | 0.9 | 4.3 | 0.00 | 0.01 | 0.00 | 89 | 1009.0 |
| 20260505233343 | 53 | 237 | 0.9 | 2.6 | 0.00 | 0.01 | 0.00 | 89 | 1009.1 |
| 20260505232846 | 53 | 237 | 0.0 | 1.7 | 0.00 | 0.01 | 0.00 | 89 | 1009.1 |
| 20260505232341 | 53 | 237 | 0.9 | 2.6 | 0.00 | 0.01 | 0.00 | 88 | 1009.2 |
| 20260505231840 | 53 | 237 | 0.9 | 2.6 | 0.00 | 0.01 | 0.00 | 88 | 1009.2 |
| 20260505231338 | 53 | 237 | 0.0 | 0.9 | 0.00 | 0.01 | 0.00 | 88 | 1009.1 |
| 20260505230837 | 54 | 237 | 0.0 | 0.9 | 0.00 | 0.01 | 0.00 | 88 | 1009.2 |
| 20260505230355 | 54 | 237 | 0.0 | 0.0 | 0.00 | 0.01 | 0.00 | 88 | 1009.2 |
| 20260505225844 | 54 | 237 | 0.0 | 0.9 | 0.00 | 0.01 | 0.00 | 88 | 1009.2 |
| 20260505225352 | 54 | 234 | 0.0 | 1.7 | 0.00 | 0.01 | 0.00 | 88 | 1009.2 |
| 20260505224901 | 55 | 234 | 0.9 | 1.7 | 0.00 | 0.01 | 0.00 | 87 | 1009.3 |
| 20260505224357 | 55 | 235 | 0.9 | 1.7 | 0.00 | 0.01 | 0.00 | 86 | 1009.3 |
| 20260505223858 | 55 | 235 | 0.0 | 0.9 | 0.00 | 0.01 | 0.00 | 85 | 1009.0 |
| 20260505223659 | 56 | 235 | 0.0 | 1.7 | 0.00 | 0.01 | 0.00 | 83 | 1008.9 |
| 20260505223431 | 56 | 235 | 0.0 | 0.9 | 0.00 | 0.01 | 0.00 | 84 | 1008.9 |
| 20260505222914 | 56 | 235 | 0.0 | 0.9 | 0.00 | 0.01 | 0.00 | 83 | 1008.8 |
| 20260505222247 | 56 | 235 | 0.9 | 4.3 | 0.00 | 0.01 | 0.00 | 82 | 1009.0 |
| 20260505221931 | 56 | 235 | 0.9 | 2.6 | 0.00 | 0.01 | 0.00 | 83 | 1008.8 |
| 20260505220834 | 57 | 234 | 0.0 | 7.8 | 0.00 | 0.01 | 0.00 | 82 | 1009.1 |
| 20260505220402 | 57 | 237 | 3.5 | 7.8 | 0.00 | 0.01 | 0.00 | 82 | 1009.1 |
| 20260505215854 | 56 | 230 | 1.7 | 6.1 | 0.00 | 0.01 | 0.01 | 81 | 1009.0 |
| 20260505215353 | 57 | 245 | 3.5 | 6.1 | 0.00 | 0.01 | 0.01 | 81 | 1009.1 |
| 20260505214855 | 56 | 228 | 2.6 | 6.1 | 0.00 | 0.01 | 0.01 | 82 | 1009.1 |
| 20260505214543 | 56 | 204 | 0.9 | 2.6 | 0.00 | 0.01 | 0.01 | 82 | 1009.0 |
| 20260505213858 | 56 | 204 | 0.9 | 4.3 | 0.00 | 0.01 | 0.01 | 82 | 1009.1 |
| 20260505212926 | 56 | 264 | 1.7 | 6.1 | 0.00 | 0.01 | 0.01 | 83 | 1008.9 |
| 20260505212839 | 56 | 264 | 1.7 | 7.0 | 0.00 | 0.01 | 0.01 | 82 | 1009.0 |
| 20260505212409 | 56 | 266 | 4.3 | 7.0 | 0.00 | 0.01 | 0.01 | 82 | 1009.0 |
| 20260505211903 | 56 | 268 | 2.6 | 6.1 | 0.00 | 0.01 | 0.01 | 82 | 1009.0 |
| 20260505211418 | 56 | 261 | 2.6 | 6.1 | 0.00 | 0.01 | 0.01 | 82 | 1008.9 |
| 20260505210427 | 56 | 259 | 2.6 | 7.0 | 0.00 | 0.01 | 0.01 | 84 | 1009.0 |
| 20260505205846 | 56 | 224 | 2.6 | 7.0 | 0.00 | 0.01 | 0.01 | 84 | 1008.9 |
| 20260505205349 | 56 | 226 | 3.5 | 6.1 | 0.00 | 0.01 | 0.01 | 84 | 1008.9 |
| 20260505204844 | 56 | 238 | 0.9 | 5.2 | 0.00 | 0.01 | 0.01 | 84 | 1008.8 |
| 20260505204326 | 56 | 244 | 1.7 | 6.1 | 0.00 | 0.01 | 0.01 | 84 | 1008.7 |
| 20260505203832 | 56 | 231 | 0.9 | 6.1 | 0.00 | 0.01 | 0.01 | 85 | 1008.6 |
| 20260505203333 | 53 | 276 | 0.9 | 2.6 | 0.00 | 0.01 | 0.01 | 88 | 1007.6 |
| 20260505203325 | 56 | 233 | 1.7 | 4.3 | 0.00 | 0.01 | 0.01 | 85 | 1008.4 |
| 20260505202849 | 56 | 216 | 0.9 | 4.3 | 0.00 | 0.01 | 0.01 | 85 | 1008.4 |
| 20260505202509 | 56 | 233 | 0.9 | 4.3 | 0.00 | 0.01 | 0.01 | 86 | 1008.3 |
| 20260505201853 | 56 | 241 | 1.7 | 4.3 | 0.00 | 0.01 | 0.01 | 87 | 1008.2 |
| 20260505201344 | 55 | 268 | 0.9 | 6.1 | 0.00 | 0.01 | 0.01 | 88 | 1008.1 |
| 20260505200847 | 55 | 240 | 4.3 | 6.1 | 0.00 | 0.01 | 0.01 | 89 | 1008.2 |
| 20260505200411 | 54 | 250 | 2.6 | 5.2 | 0.00 | 0.01 | 0.01 | 89 | 1007.8 |
| 20260505195907 | 54 | 258 | 0.9 | 2.6 | 0.00 | 0.01 | 0.01 | 88 | 1007.7 |
| 20260505194317 | 53 | 38 | 0.9 | 1.7 | 0.00 | 0.01 | 0.01 | 86 | 1007.4 |
| 20260505193828 | 54 | 45 | 0.0 | 2.6 | 0.00 | 0.01 | 0.01 | 86 | 1007.1 |
| 20260505193316 | 54 | 45 | 0.0 | 2.6 | 0.00 | 0.01 | 0.01 | 85 | 1007.1 |
| 20260505192816 | 54 | 45 | 2.6 | 2.6 | 0.00 | 0.01 | 0.01 | 85 | 1007.1 |
| 20260505192323 | 55 | 290 | 0.0 | 2.6 | 0.00 | 0.01 | 0.01 | 86 | 1007.2 |
| 20260505192255 | 55 | 288 | 1.7 | 1.7 | 0.00 | 0.01 | 0.01 | 85 | 1007.1 |
| 20260505191318 | 55 | 286 | 0.0 | 2.6 | 0.00 | 0.01 | 0.01 | 85 | 1007.2 |
| 20260505190843 | 56 | 285 | 0.9 | 4.3 | 0.00 | 0.01 | 0.01 | 83 | 1007.1 |
| 20260505190819 | 55 | 288 | 1.7 | 2.6 | 0.00 | 0.01 | 0.01 | 84 | 1007.2 |
| 20260505190448 | 55 | 285 | 1.7 | 2.6 | 0.00 | 0.01 | 0.01 | 83 | 1007.2 |
| 20260505185305 | 56 | 285 | 1.7 | 4.3 | 0.00 | 0.01 | 0.01 | 82 | 1007.1 |
| 20260505184810 | 56 | 286 | 1.7 | 2.6 | 0.00 | 0.01 | 0.01 | 82 | 1007.0 |
| 20260505184302 | 57 | 288 | 1.7 | 5.2 | 0.00 | 0.01 | 0.01 | 81 | 1007.0 |
| 20260505183849 | 57 | 274 | 2.6 | 7.0 | 0.00 | 0.01 | 0.01 | 80 | 1006.9 |
| 20260505183814 | 57 | 295 | 0.9 | 6.1 | 0.00 | 0.01 | 0.01 | 81 | 1006.9 |
| 20260505182949 | 58 | 274 | 4.3 | 6.1 | 0.00 | 0.01 | 0.01 | 79 | 1006.8 |
| 20260505182944 | 59 | 262 | 4.3 | 7.8 | 0.00 | 0.01 | 0.01 | 78 | 1006.7 |
| 20260505182844 | 58 | 281 | 4.3 | 7.0 | 0.00 | 0.01 | 0.01 | 79 | 1006.8 |
| 20260505181330 | 59 | 266 | 3.5 | 7.8 | 0.00 | 0.01 | 0.01 | 77 | 1006.6 |
| 20260505180807 | 60 | 266 | 4.3 | 7.0 | 0.00 | 0.01 | 0.01 | 77 | 1006.5 |
| 20260505180319 | 60 | 274 | 2.6 | 5.2 | 0.00 | 0.01 | 0.01 | 78 | 1006.4 |
| 20260505175756 | 60 | 281 | 0.9 | 2.6 | 0.00 | 0.01 | 0.01 | 80 | 1006.5 |
| 20260505175309 | 60 | 292 | 0.9 | 2.6 | 0.01 | 0.01 | 0.01 | 81 | 1006.5 |
| 20260505175115 | 59 | 340 | 0.0 | 1.7 | 0.01 | 0.01 | 0.01 | 82 | 1006.5 |
| 20260505174832 | 59 | 333 | 0.9 | 1.7 | 0.01 | 0.01 | 0.01 | 82 | 1006.5 |
| 20260505173757 | 59 | 341 | 0.9 | 1.7 | 0.01 | 0.01 | 0.01 | 82 | 1006.5 |
| 20260505173257 | 59 | 341 | 0.0 | 2.6 | 0.01 | 0.01 | 0.01 | 83 | 1006.5 |
| 20260505172815 | 59 | 358 | 1.7 | 2.6 | 0.01 | 0.01 | 0.01 | 83 | 1006.3 |
| 20260505172254 | 59 | 244 | 0.9 | 1.7 | 0.01 | 0.01 | 0.01 | 83 | 1006.5 |
| 20260505171754 | 59 | 227 | 0.0 | 4.3 | 0.01 | 0.01 | 0.01 | 82 | 1006.6 |
| 20260505171310 | 59 | 227 | 1.7 | 4.3 | 0.01 | 0.01 | 0.01 | 80 | 1006.7 |
| 20260505170815 | 60 | 224 | 1.7 | 4.3 | 0.01 | 0.01 | 0.01 | 82 | 1006.9 |
| 20260505170328 | 60 | 223 | 2.6 | 4.3 | 0.01 | 0.01 | 0.01 | 81 | 1006.8 |
| 20260505165810 | 60 | 192 | 0.0 | 2.6 | 0.00 | 0.00 | 0.00 | 79 | 1006.9 |
| 20260505165331 | 60 | 144 | 0.0 | 1.7 | 0.00 | 0.00 | 0.00 | 76 | 1006.7 |
| 20260505165306 | 60 | 144 | 0.0 | 0.9 | 0.00 | 0.00 | 0.00 | 76 | 1006.8 |
| 20260505164249 | 60 | 224 | 0.0 | 2.6 | 0.00 | 0.00 | 0.00 | 74 | 1006.9 |
| 20260505163756 | 61 | 230 | 0.0 | 6.1 | 0.00 | 0.00 | 0.00 | 74 | 1006.9 |
| 20260505163300 | 61 | 188 | 1.7 | 7.0 | 0.00 | 0.00 | 0.00 | 72 | 1007.0 |
| 20260505162754 | 61 | 248 | 0.9 | 9.6 | 0.00 | 0.00 | 0.00 | 71 | 1006.7 |
| 20260505162243 | 62 | 237 | 5.2 | 9.6 | 0.00 | 0.00 | 0.00 | 69 | 1006.8 |
| 20260505161755 | 63 | 234 | 5.2 | 13.0 | 0.00 | 0.00 | 0.00 | 68 | 1006.8 |
| 20260505161248 | 63 | 171 | 6.1 | 13.0 | 0.00 | 0.00 | 0.00 | 65 | 1006.9 |
| 20260505161008 | 64 | 245 | 7.0 | 13.0 | 0.00 | 0.00 | 0.00 | 65 | 1006.5 |
| 20260505160807 | 63 | 255 | 7.8 | 10.4 | 0.00 | 0.00 | 0.00 | 65 | 1006.6 |
| 20260505153248 | 66 | 261 | 9.6 | 14.8 | 0.00 | 0.00 | 0.00 | 60 | 1005.7 |
| 20260505152801 | 67 | 272 | 7.0 | 15.6 | 0.00 | 0.00 | 0.00 | 59 | 1005.6 |
| 20260505152245 | 68 | 264 | 8.7 | 16.5 | 0.00 | 0.00 | 0.00 | 56 | 1005.7 |
| 20260505151744 | 69 | 266 | 10.4 | 17.4 | 0.00 | 0.00 | 0.00 | 52 | 1005.6 |
| 20260505151237 | 70 | 254 | 11.3 | 17.4 | 0.00 | 0.00 | 0.00 | 50 | 1005.5 |
| 20260505150857 | 71 | 245 | 3.5 | 7.8 | 0.00 | 0.00 | 0.00 | 43 | 1005.3 |
| 20260505150827 | 72 | 204 | 1.7 | 7.8 | 0.00 | 0.00 | 0.00 | 45 | 1005.2 |
| 20260505150741 | 71 | 305 | 6.1 | 9.6 | 0.00 | 0.00 | 0.00 | 48 | 1005.3 |
| 20260505150419 | 71 | 248 | 6.1 | 8.7 | 0.00 | 0.00 | 0.00 | 47 | 1005.3 |
| 20260505124756 | 75 | 240 | 3.5 | 6.1 | 0.00 | 0.00 | 0.00 | 39 | 1005.9 |